GFSGBSN_850_dewp_108.txt.gz
Dewpoint
10 9 9 9 10 10 10 9 9 9 9 10 9 8 7 0 -4 -18 -24 -26 -27 -30 -31 -30 -31 -32 -30 -28 -32 -34 -31 -20 -11 -14 -14 -18 -9 -4 -3 -4 -5 -6 -7 -9 -10 -10 -9
10 10 10 9 9 10 10 9 10 9 9 9 9 9 7 2 -4 -17 -21 -24 -28 -30 -30 -30 -28 -28 -21 -13 -30 -28 -15 -9 -12 -10 -9 -13 -3 -5 -10 -11 -11 -9 -11 -10 -11 -10 -9
10 9 10 10 10 10 10 10 9 9 9 9 9 9 7 3 0 -11 -9 -19 -29 -31 -29 -30 -21 -16 -15 -30 -32 -30 -11 -12 -11 -9 -9 -9 -11 -13 -12 -10 -12 -13 -11 -12 -11 -8 -7
10 9 10 10 10 10 10 10 10 10 10 9 9 8 7 6 2 -4 -8 -22 -28 -30 -30 -24 -15 -11 -15 -26 -26 -26 -11 -9 -8 -9 -9 -9 -8 -9 -9 -10 -8 -10 -11 -10 -9 -11 -12
8 9 8 9 9 10 10 10 10 9 10 10 9 8 8 6 3 -2 -9 -21 -29 -28 -28 -17 -11 -8 -12 -14 -14 -9 -8 -11 -9 -8 -9 -10 -10 -8 -10 -7 -5 -8 -9 -8 -9 -9 -11
1 6 9 9 9 9 8 9 9 10 9 9 9 8 8 6 -1 -4 -15 -27 -21 -15 -9 -8 -5 -2 -15 -8 -7 -10 -10 -10 -11 -11 -9 -11 -8 -6 -8 -5 -4 -9 -9 -7 -5 -8 -9
6 4 5 5 6 7 6 8 8 9 8 9 8 7 7 4 -2 -7 -24 -18 -8 -6 -3 -14 -8 -10 -5 -5 -9 -13 -14 -11 -14 -9 -8 -10 -11 -7 -6 -6 -6 -8 -4 -3 -5 -6 -6
6 6 5 3 4 5 6 7 8 9 7 8 8 6 7 5 -0 -17 -23 -9 -10 -8 -10 -19 -14 -7 -8 -6 -4 -9 -12 -12 -10 -9 -9 -9 -8 -11 -13 -11 -7 -7 -5 -4 -6 -7 -8
4 5 5 5 2 3 6 6 8 7 7 8 7 5 5 2 -4 -22 -10 -8 -8 -7 -12 -20 -17 -18 -18 -13 -11 -12 -12 -10 -8 -7 -8 -6 -6 -9 -10 -9 -7 -6 -5 -5 -6 -10 -10
5 5 6 5 3 2 4 6 6 7 7 7 7 4 4 -1 -8 -17 -5 -7 -6 -13 -7 -10 -7 -8 -8 -11 -10 -12 -14 -13 -15 -11 -14 -13 -12 -14 -14 -14 -13 -13 -12 -11 -12 -11 -11
5 5 6 6 6 3 3 5 7 7 7 7 5 4 2 1 -10 -7 -6 -6 -5 -8 -13 -7 -8 -11 -9 -10 -13 -13 -13 -14 -13 -12 -14 -11 -13 -11 -12 -12 -16 -13 -14 -13 -12 -4 -3
0 4 6 6 6 5 4 6 7 7 7 5 5 4 1 -2 -10 -4 -4 -5 -12 -4 -10 -8 -12 -12 -11 -12 -13 -14 -14 -15 -12 -11 -13 -12 -11 -13 -12 -13 -11 -10 -6 -5 -6 -4 -2
-1 -1 2 6 6 6 5 5 6 6 6 4 4 3 1 -9 -12 -3 -5 -3 -2 -1 -10 -10 -11 -11 -11 -11 -11 -11 -10 -10 -12 -10 -6 -5 -6 -8 -7 -5 -7 -6 -5 -1 -1 2 -3
-2 -2 -1 5 6 6 6 6 6 6 4 4 3 1 -8 -13 -6 -3 -8 -0 1 -6 -9 -13 -13 -10 -10 -12 -11 -9 -9 -9 -5 -5 -3 -1 -4 -6 -7 -6 -5 -5 -5 -2 -1 -0 -2
-2 -1 -1 5 5 6 4 5 6 4 4 3 2 -3 -13 -10 -5 -2 -2 -0 -10 -9 -11 -11 -12 -9 -9 -11 -11 -9 -8 -8 -8 -8 -6 -4 -2 -7 -9 -9 -7 -3 -2 -6 -4 -5 -1
-2 -2 1 5 5 6 6 5 5 4 3 2 -4 -12 -7 -3 -4 -5 -2 -3 -10 -12 -12 -12 -9 -10 -8 -10 -9 -8 -8 -8 -8 -9 -6 -2 -1 -7 -8 -7 -6 -4 -3 -0 1 2 3
-1 1 4 5 6 6 6 5 5 3 2 0 -7 -5 -3 -6 -6 -1 -3 -2 -11 -12 -12 -11 -10 -9 -9 -6 -7 -6 -6 -8 -8 -6 -4 -3 -2 -5 -4 -4 -5 -1 1 -0 -1 2 3
5 5 5 5 5 5 5 5 3 2 1 -10 -5 -2 -5 -6 -1 -2 -1 -4 -12 -11 -10 -8 -7 -7 -6 -5 -5 -4 -4 -7 -6 -5 -3 -4 -1 -0 -3 -6 -5 -6 -3 -0 1 5 3
5 5 5 5 5 5 4 3 2 1 -5 -2 -2 -2 -2 -0 -0 -0 -3 -7 -7 -7 -6 -6 -5 -6 -7 -5 -4 -4 -3 -5 -4 -4 -3 -2 -1 -1 -3 1 1 1 2 4 3 3 5
5 5 5 4 3 3 2 2 1 -1 -3 -4 -6 -2 -2 -1 -2 -3 -4 -4 -5 -6 -5 -7 -6 -5 -4 -3 -4 -3 -2 -5 -4 -3 -3 -3 -1 -2 -3 -7 -5 -0 0 2 3 3 3
5 5 3 2 2 1 1 0 -2 -4 -3 -6 -7 -4 -4 -0 -5 -4 -5 -5 -4 -4 -5 -7 -5 -3 -3 -2 -3 -2 -4 -4 -5 -4 -3 -1 0 -0 -1 -2 -1 2 1 0 4 4 3
0 1 -0 0 -0 0 -0 -2 -4 -2 -3 -2 -4 -4 -4 -4 -5 -3 -4 -4 -5 -5 -4 -4 -4 -4 -3 -2 -3 -3 -3 -3 -3 -3 1 2 0 1 0 -1 2 0 -0 -1 -1 1 -0
-0 -0 -0 0 0 -1 -2 -5 -4 -2 -2 -4 -5 -5 -9 -6 -5 -4 -4 -3 -5 -4 -5 -6 -5 -3 -2 -2 -3 -4 -4 -2 -1 -0 1 1 1 1 3 1 0 -0 -0 -1 -2 -3 -2
-0 -0 -1 -1 -2 -4 -11 -4 -2 -2 -3 -6 -5 -7 -7 -3 -6 -4 -4 -5 -4 -5 -7 -5 -5 -3 -3 -3 -2 -1 -1 -2 -2 -1 0 1 1 2 3 2 1 -1 -1 -3 -4 -4 -4
-1 -2 -4 -10 -12 -12 -11 -4 -3 -2 -5 -6 -6 -7 -7 -4 -6 -4 -3 -4 -4 -3 -4 -5 -4 -3 -3 -1 -0 -0 1 1 1 1 2 1 1 2 4 2 -0 0 -3 -3 -1 -3 -5
-2 -3 -7 -11 -12 -11 -7 -3 -3 -3 -5 -6 -6 -9 -7 -4 -3 -4 -5 -6 -5 -5 -5 -5 -5 -3 -3 -1 -0 0 1 2 3 2 1 2 2 3 3 1 2 -2 -5 -5 -4 -4 -5
-4 -8 -11 -13 -13 -9 -4 -3 -4 -5 -6 -6 -6 -8 -7 -4 -4 -7 -6 -5 -5 -5 -5 -5 -4 -3 -4 -3 -1 1 2 0 1 0 1 1 2 1 2 1 -1 -5 -5 -3 -1 -3 -6
-4 -7 -10 -12 -10 -4 -3 -4 -5 -5 -7 -7 -6 -6 -7 -4 -3 -4 -5 -5 -5 -6 -6 -5 -5 -4 -3 -2 -1 -0 0 -0 1 -1 -0 -1 0 -1 -1 0 0 -6 -5 -3 -4 -6 -7
-4 -8 -11 -10 -5 -4 -4 -5 -7 -8 -10 -8 -7 -8 -7 -7 -4 -7 -9 -10 -11 -10 -4 -2 -4 -3 -3 -2 -2 -2 -1 -1 -2 -1 -3 -1 -3 -3 -3 -4 -5 -6 -5 -5 -6 -6 -7

GFSGBSN_850_dewp_111.txt.gz
Dewpoint
10 10 10 9 9 9 9 9 9 9 9 9 9 9 9 9 7 6 2 -10 -15 -21 -26 -30 -32 -32 -32 -29 -32 -33 -30 -15 -14 -14 -14 -17 -12 -6 -4 -4 -5 -5 -6 -8 -9 -10 -9
11 10 10 10 10 10 10 9 9 9 9 9 9 9 9 9 8 6 5 -5 -9 -15 -26 -30 -30 -31 -22 -16 -27 -30 -30 -20 -12 -10 -10 -11 -4 -6 -8 -9 -9 -7 -10 -12 -12 -11 -11
10 10 10 10 10 10 10 10 10 9 9 9 9 10 9 9 8 6 5 -2 -5 -15 -27 -29 -29 -23 -24 -30 -31 -31 -30 -11 -12 -10 -9 -9 -11 -14 -12 -10 -11 -12 -11 -12 -13 -9 -8
0 8 10 10 10 10 10 10 10 10 10 10 10 10 9 9 8 7 5 0 -6 -17 -25 -29 -24 -18 -21 -30 -27 -27 -20 -9 -11 -8 -8 -9 -9 -9 -9 -9 -7 -7 -10 -10 -10 -9 -11
3 -2 4 8 8 9 8 9 10 10 10 10 9 9 9 9 8 7 6 -2 -11 -18 -25 -20 -13 -12 -18 -17 -13 -10 -15 -13 -9 -10 -8 -10 -10 -9 -10 -6 -5 -7 -10 -10 -10 -9 -9
-3 4 5 3 4 6 8 9 9 9 9 9 9 9 9 8 8 7 3 -7 -19 -19 -11 -10 -7 -7 -18 -12 -7 -7 -5 -6 -7 -10 -10 -11 -8 -6 -7 -6 -11 -11 -9 -8 -8 -7 -8
-0 -3 -0 6 5 2 6 8 8 8 8 7 8 9 8 7 8 6 0 -15 -9 -7 -3 -15 -12 -15 -8 -6 -8 -11 -13 -13 -12 -10 -8 -11 -9 -7 -8 -6 -6 -6 -6 -6 -6 -8 -6
4 2 1 4 6 5 4 5 5 5 7 7 8 8 7 7 7 5 -5 -20 -9 -9 -8 -18 -15 -7 -10 -6 -7 -10 -12 -12 -10 -10 -8 -8 -7 -9 -11 -10 -9 -8 -7 -7 -7 -8 -10
6 6 5 3 5 6 5 4 4 6 4 5 7 7 7 7 5 5 -13 -9 -8 -8 -10 -18 -18 -15 -19 -16 -7 -13 -14 -15 -9 -9 -7 -8 -8 -9 -9 -9 -8 -8 -7 -9 -11 -12 -14
1 5 5 5 4 5 5 6 2 2 7 5 7 7 7 6 4 1 -11 -6 -8 -6 -9 -13 -10 -9 -9 -12 -11 -12 -14 -10 -12 -7 -7 -8 -12 -12 -13 -13 -14 -12 -12 -13 -12 -12 -12
-1 1 1 3 5 5 6 5 4 3 5 7 7 7 7 5 3 -1 -1 -4 -4 -7 -6 -7 -6 -9 -9 -10 -12 -13 -13 -15 -13 -13 -12 -10 -12 -10 -10 -11 -14 -11 -13 -10 -9 -8 -6
1 -2 0 0 2 5 6 6 5 3 5 7 7 6 5 4 3 -2 -5 -4 -6 -3 -8 -7 -12 -12 -11 -12 -13 -14 -14 -14 -12 -11 -12 -11 -9 -11 -10 -11 -11 -8 -6 -6 -5 -5 -6
-1 0 -4 -1 0 2 5 6 7 5 6 6 5 6 4 4 -1 -4 -6 -5 -3 -5 -10 -10 -11 -11 -11 -10 -11 -12 -11 -12 -13 -11 -9 -7 -9 -8 -7 -6 -7 -8 -7 -4 -3 -1 -6
-1 -0 -3 -4 -2 -1 1 6 6 6 5 6 5 5 3 2 -1 -3 -3 -0 -7 -7 -8 -10 -11 -11 -11 -12 -11 -9 -11 -10 -6 -8 -6 -7 -8 -5 -7 -7 -7 -7 -7 -6 -3 -4 -5
-3 -1 -0 -5 -3 -2 -1 5 6 6 5 5 3 2 0 -6 -4 -2 -5 -4 -8 -8 -11 -11 -11 -9 -10 -11 -11 -10 -9 -9 -7 -9 -8 -7 -5 -6 -8 -10 -9 -5 -4 -8 -5 -7 -4
-3 -2 -0 -3 -5 -1 -0 5 6 6 5 4 3 1 -3 -7 -3 -2 -1 -7 -8 -12 -12 -12 -9 -10 -8 -11 -9 -8 -9 -9 -8 -8 -9 -5 -3 -7 -9 -7 -7 -7 -6 -0 -2 2 1
-6 -5 -2 -4 -3 -0 2 5 6 6 5 4 2 -1 -2 -1 -1 -2 -1 -5 -11 -12 -12 -11 -10 -10 -10 -8 -8 -7 -9 -9 -7 -4 -4 -4 -5 -7 -6 -6 -6 -3 -3 -3 -3 -3 2
-6 -2 -3 -2 -2 2 3 5 5 5 5 2 -1 -1 -2 -1 -1 -2 -2 -3 -12 -11 -10 -8 -8 -9 -7 -6 -6 -6 -6 -7 -7 -5 -5 -4 -1 -1 -4 -6 -4 -5 -4 0 1 1 2
-3 -1 -2 -2 1 3 4 4 5 5 4 1 -1 -1 -1 -2 -0 -1 -3 -6 -8 -7 -6 -6 -5 -6 -7 -6 -6 -5 -5 -4 -6 -4 -3 -1 -1 -2 -3 1 -0 -2 -1 1 3 1 1
-2 -2 -1 2 4 4 5 4 5 5 3 1 -3 -1 -1 -1 -1 -4 -3 -5 -5 -6 -6 -7 -6 -5 -4 -4 -4 -4 -3 -4 -4 -4 -3 -2 -1 -2 -7 -10 -8 -2 -1 0 2 3 -0
-2 -1 1 5 4 5 4 5 5 3 0 -1 -5 -2 -3 -1 -2 -3 -4 -4 -5 -4 -6 -7 -5 -4 -4 -3 -3 -3 -4 -3 -5 -4 -4 -1 -1 -1 -1 -3 -2 1 0 0 -0 1 2
0 4 6 5 5 5 5 4 3 0 -3 -2 -4 -3 -3 -4 -4 -2 -3 -3 -5 -4 -4 -5 -5 -4 -4 -3 -5 -3 -3 -3 -2 -3 -0 -0 0 0 -1 -2 0 -1 -1 -0 -1 0 -1
5 5 5 4 4 3 4 2 -1 -1 -2 -3 -4 -5 -4 -3 -4 -4 -3 -4 -4 -3 -5 -5 -4 -3 -3 -3 -4 -5 -5 -3 -3 -2 1 1 1 1 1 0 -0 1 -0 -1 -2 -2 -1
3 2 3 2 0 0 1 -1 -1 -1 -2 -4 -5 -8 -5 -3 -5 -6 -5 -5 -4 -5 -3 -4 -4 -2 -3 -3 -3 -1 -1 -2 -2 -2 -1 1 1 1 1 2 3 -0 -2 -4 -4 -4 -4
-1 -1 -1 -1 0 0 -0 -1 -1 -1 -4 -5 -8 -9 -9 -4 -5 -4 -5 -4 -3 -4 -4 -4 -4 -4 -3 -2 -1 0 0 0 0 -0 1 0 1 1 3 2 0 -0 -3 -2 -2 -3 -5
-1 -1 -0 -0 -0 -1 -2 -2 -1 -2 -5 -6 -8 -10 -10 -4 -4 -5 -4 -5 -4 -4 -5 -4 -3 -4 -4 -1 -1 1 1 1 2 3 2 2 1 0 1 2 1 -2 -5 -5 -4 -2 -6
-2 -2 -3 -3 -3 -4 -2 -1 -2 -4 -5 -6 -8 -12 -10 -4 -4 -6 -5 -5 -6 -5 -5 -5 -3 -3 -4 -2 0 1 1 -0 0 -0 1 1 1 2 2 0 -2 -5 -6 -4 0 -1 -6
-5 -5 -5 -5 -4 -3 -3 -3 -4 -5 -6 -6 -7 -9 -9 -4 -3 -6 -6 -6 -6 -7 -5 -5 -3 -4 -3 -1 -1 -0 -0 0 0 -1 -0 -0 -0 -0 0 -0 0 -6 -4 -2 -4 -6 -7
-11 -8 -4 -3 -3 -3 -4 -4 -5 -6 -6 -7 -7 -7 -8 -6 -5 -7 -9 -9 -13 -10 -4 -3 -5 -3 -3 -2 -2 -1 -0 -1 -1 -0 -3 -0 -2 -2 -3 -4 -6 -5 -5 -5 -6 -7 -8

GFSGBSN_850_dewp_114.txt.gz
Dewpoint
10 11 11 10 10 10 9 9 9 9 10 10 10 9 9 9 9 9 8 6 3 -7 -2 -9 -17 -24 -30 -15 -20 -26 -32 -12 -11 -13 -10 -11 -12 -13 -14 -14 -11 -8 -12 -10 -8 -9 -10
9 10 9 10 10 10 10 10 10 10 9 10 9 9 9 9 9 8 8 6 5 -0 -2 -12 -20 -27 -18 -13 -18 -26 -30 -29 -15 -9 -9 -9 -11 -11 -11 -11 -10 -9 -7 -9 -11 -11 -13
-3 1 8 10 10 10 10 10 10 10 10 10 9 10 9 9 9 8 8 7 6 3 -3 -13 -21 -26 -12 -11 -18 -28 -30 -25 -8 -7 -8 -7 -7 -9 -11 -12 -11 -11 -10 -14 -14 -15 -12
-6 -6 -5 5 9 9 9 10 10 10 10 10 10 10 10 9 9 9 8 8 7 4 -2 -14 -21 -18 -9 -19 -28 -30 -21 -16 -9 -10 -8 -9 -9 -9 -9 -8 -8 -8 -10 -12 -12 -11 -12
-9 -6 -6 -5 -3 1 4 9 9 9 10 10 10 10 9 9 9 8 8 8 6 2 -8 -11 -13 -11 -10 -18 -15 -9 -15 -11 -7 -7 -7 -9 -9 -8 -7 -7 -9 -9 -15 -15 -14 -13 -12
-11 -6 -4 -4 -2 3 -1 4 8 8 8 9 9 9 9 9 8 8 8 7 4 -2 -8 -8 -4 -3 -10 -15 -4 -9 -8 -7 -9 -8 -9 -8 -9 -8 -8 -8 -11 -14 -12 -14 -12 -14 -11
-8 3 1 -2 -3 3 6 5 0 6 8 8 8 8 7 8 8 7 7 5 -3 -2 -5 -5 -8 -10 -10 -4 -8 -9 -7 -9 -9 -9 -8 -9 -8 -8 -10 -10 -10 -10 -9 -10 -13 -12 -10
-11 2 5 4 2 -0 3 6 6 3 6 8 9 7 7 8 7 7 6 3 -9 -5 -4 -6 -11 -7 -8 -9 -6 -9 -11 -11 -10 -10 -10 -7 -8 -10 -10 -10 -10 -10 -10 -10 -11 -10 -11
-6 -5 3 5 5 4 4 7 6 6 4 6 6 7 7 7 7 6 5 -1 -8 -11 -7 -8 -12 -11 -9 -6 -12 -12 -10 -12 -11 -12 -11 -9 -13 -10 -10 -10 -9 -9 -9 -10 -10 -15 -16
2 -4 -3 1 3 5 4 4 6 6 6 4 8 6 7 7 6 5 2 -4 -9 -6 -2 -2 -14 -12 -10 -10 -12 -11 -12 -13 -13 -13 -13 -10 -13 -10 -10 -10 -11 -9 -13 -13 -13 -12 -13
1 1 -1 -2 -1 2 4 4 5 6 6 5 4 6 5 6 6 4 0 -5 -4 -5 6 -8 -9 -8 -9 -12 -13 -13 -13 -12 -12 -11 -10 -10 -11 -10 -9 -10 -12 -12 -12 -11 -11 -10 -9
-0 -0 1 0 -3 -1 -1 2 5 6 6 5 4 4 6 6 5 3 1 -2 -8 -0 4 -7 -11 -9 -10 -12 -12 -13 -13 -12 -11 -11 -11 -11 -11 -12 -12 -12 -12 -12 -10 -11 -10 -8 -7
-1 -2 -1 -0 -1 -3 -1 0 5 6 7 6 5 5 6 6 4 2 -3 -5 -1 1 -11 -8 -9 -10 -8 -11 -12 -12 -12 -11 -10 -9 -8 -10 -10 -11 -10 -10 -10 -9 -8 -7 -6 -3 -6
-3 -2 -2 -1 -1 -1 -4 -1 1 6 5 6 6 6 5 5 3 -2 -4 -0 3 -2 -8 -11 -11 -10 -7 -10 -11 -11 -11 -10 -9 -11 -8 -8 -8 -10 -8 -9 -9 -7 -8 -8 -10 -11 -11
-4 -4 -4 -5 -2 -1 -4 -2 -1 3 6 6 6 4 3 3 1 -1 -2 1 1 -3 -10 -11 -10 -8 -9 -11 -11 -11 -10 -11 -11 -10 -9 -9 -10 -9 -8 -9 -10 -9 -6 -10 -7 -8 -5
-5 -4 -4 -4 -4 -1 -1 -3 -0 3 5 6 5 2 1 -0 0 -1 -0 1 -4 -12 -12 -13 -11 -10 -8 -9 -9 -10 -10 -12 -9 -10 -12 -9 -8 -11 -10 -9 -10 -10 -9 -2 -5 -0 -1
-7 -9 -5 -4 -3 -2 -1 -1 1 4 5 5 4 0 -1 -0 -0 0 1 -1 -7 -13 -13 -11 -11 -9 -10 -9 -10 -10 -12 -11 -10 -9 -9 -8 -7 -10 -8 -8 -9 -6 -5 -5 -4 -3 0
-7 -7 -7 -4 -4 -4 -2 -1 2 4 4 4 1 -0 -1 -0 0 0 -0 -5 -10 -12 -12 -11 -11 -10 -10 -10 -9 -9 -9 -10 -10 -7 -7 -7 -3 -4 -6 -8 -7 -8 -7 -5 -1 0 -2
-5 -3 -3 -4 -4 -7 -4 0 3 3 4 3 -1 -2 -1 -1 1 0 -4 -6 -10 -11 -11 -10 -9 -10 -8 -8 -6 -8 -7 -6 -6 -7 -7 -4 -4 -3 -3 1 -1 1 -3 -5 -1 2 1
-3 -3 -4 -4 -5 -7 -3 1 3 3 4 3 -1 0 -1 -1 0 -2 -3 -5 -8 -9 -9 -8 -7 -7 -6 -6 -8 -6 -6 -5 -4 -5 -4 -3 -3 -2 -4 -8 -8 -4 -1 -0 1 3 0
-3 -4 -3 -3 -3 -8 -1 1 3 3 4 3 0 -1 -2 1 -0 -3 -5 -6 -8 -7 -8 -8 -6 -7 -7 -6 -6 -6 -7 -4 -5 -4 -5 -2 -2 -1 -2 -4 -4 -1 -0 -1 1 -0 2
-0 -1 -1 -2 -2 -7 -1 2 3 3 3 2 -0 -3 -4 -3 -4 -2 -4 -6 -8 -6 -6 -7 -7 -7 -7 -7 -8 -5 -5 -4 -1 -5 -4 -4 -1 0 0 -1 -1 2 -1 0 0 -1 -0
-1 -1 -0 -2 -1 -3 -0 3 3 3 3 0 -1 -3 -4 -4 -3 -2 -3 -6 -5 -3 -6 -8 -8 -6 -5 -7 -7 -7 -6 -4 -4 -2 -0 2 0 2 2 -1 1 2 0 -0 -1 -1 -0
-0 -3 -2 -2 -3 -1 3 3 2 2 2 1 -3 -3 -2 -2 -3 -5 -8 -7 -6 -5 2 -5 -5 -4 -4 -2 -2 -2 -2 -3 -3 -3 -3 1 2 1 1 2 3 1 -1 -3 -3 -2 -3
-0 -1 -0 -0 1 3 3 1 0 1 1 -1 -4 -3 -3 -2 -5 -6 -7 -7 -7 -4 -2 -2 -3 -3 -2 -3 -2 -0 1 1 -0 -2 -1 1 1 2 2 1 0 -0 -1 -1 0 -2 -5
0 1 -0 3 3 1 -0 -0 -0 -0 -2 -2 -3 -6 -3 -1 -2 -6 -7 -6 -5 -4 -3 -2 -2 -1 -2 -2 -1 2 1 1 2 3 1 2 2 2 0 1 2 -1 -5 -5 -4 0 -5
1 2 1 0 -0 -1 -1 -1 -1 -1 -2 -5 -7 -8 -5 -3 -4 -7 -6 -6 -7 -7 -6 -4 -3 -2 -3 -1 1 0 0 -1 0 0 2 2 3 2 1 2 -1 -5 -6 -4 1 0 -6
-1 -1 -1 -1 -1 -1 -1 -1 -2 -3 -5 -8 -9 -9 -9 -2 -2 -4 -5 -5 -5 -8 -5 -4 -3 -3 -3 -1 -1 -1 0 -0 -1 -2 -0 1 2 2 1 2 1 -5 -4 -1 -3 -6 -6
-1 -1 -1 -1 -0 -1 -1 -4 -5 -5 -6 -9 -10 -10 -9 -4 -3 -6 -7 -9 -8 -7 -4 -3 -4 -3 -3 -2 -2 -2 -0 -1 -1 0 -3 1 -1 -0 -2 -1 -6 -5 -4 -5 -5 -6 -6

GFSGBSN_850_dewp_117.txt.gz
Dewpoint
10 10 10 10 10 10 10 10 10 9 9 9 10 10 10 9 9 9 9 8 8 6 5 4 3 0 -1 -4 -7 -12 -19 -23 -13 -7 -11 -13 -12 -13 -12 -14 -15 -15 -13 -15 -16 -13 -11
7 6 9 10 10 10 10 10 10 10 10 10 10 10 9 9 9 9 9 8 8 7 6 5 2 -7 -3 -2 -10 -12 -12 -5 -7 -9 -13 -15 -16 -15 -14 -15 -13 -14 -14 -12 -14 -13 -14
-5 -5 -3 8 9 10 8 10 10 10 10 10 10 10 10 10 9 9 9 8 8 7 6 6 1 -10 -2 -2 -7 -9 -10 -13 -10 -11 -11 -10 -9 -8 -13 -13 -14 -14 -13 -16 -17 -17 -16
-8 -6 -6 -5 -2 1 8 10 10 10 10 10 10 10 10 10 9 9 9 9 8 7 7 5 -5 -8 -1 -5 -8 -11 -13 -11 -11 -12 -10 -10 -10 -11 -12 -13 -11 -12 -12 -10 -15 -14 -16
-17 -14 -10 -7 -6 -3 -2 4 8 9 9 10 10 10 10 10 9 9 9 8 8 7 6 3 -5 1 -1 -8 -10 -8 -10 -14 -11 -9 -9 -9 -10 -12 -12 -8 -9 -12 -9 -9 -13 -15 -15
-11 -18 -17 -11 -9 -6 -4 2 2 -0 5 9 9 9 9 9 9 8 8 8 7 5 3 1 1 0 -3 -11 -7 -9 -6 -11 -12 -9 -9 -9 -12 -10 -10 -10 -8 -8 -10 -12 -12 -14 -15
-5 -12 -16 -13 -6 -4 -5 0 6 6 2 4 6 9 9 9 8 8 7 7 2 3 2 1 -1 -2 -7 -6 -7 -10 -4 -5 -11 -12 -9 -11 -9 -8 -10 -10 -11 -10 -9 -10 -13 -16 -15
3 -2 -10 -2 4 4 2 -1 1 6 6 3 6 8 8 8 7 8 7 6 -2 1 2 0 -2 -3 -4 -7 -7 -8 -9 -10 -9 -8 -10 -9 -6 -9 -12 -12 -9 -8 -10 -11 -13 -15 -13
2 3 -0 -4 3 5 5 4 3 5 6 5 4 7 8 7 7 7 6 5 4 1 -0 0 -1 -3 -4 -7 -7 -10 -9 -11 -11 -9 -10 -9 -8 -12 -12 -11 -9 -10 -11 -11 -11 -12 -14
1 2 3 -1 -3 3 4 5 4 4 7 6 6 6 7 7 6 6 6 5 1 -2 4 -0 -6 -9 -9 -8 -9 -10 -13 -9 -11 -11 -11 -11 -13 -12 -12 -10 -11 -10 -13 -13 -11 -11 -9
0 1 2 2 1 -2 1 3 5 4 5 6 6 6 4 6 6 5 3 3 -2 1 5 -6 -10 -11 -10 -12 -12 -12 -14 -15 -13 -12 -12 -10 -13 -10 -11 -12 -12 -10 -12 -11 -11 -10 -9
0 -0 0 1 1 2 -1 0 1 4 5 6 6 6 5 6 6 6 4 1 -1 3 5 -4 -9 -8 -9 -12 -12 -13 -13 -13 -12 -12 -12 -10 -12 -12 -12 -13 -12 -13 -11 -10 -10 -9 -6
-3 -0 0 -0 -0 0 1 -1 -0 -0 5 6 6 6 5 5 5 5 2 -1 4 5 -6 -5 -7 -9 -9 -9 -11 -12 -11 -10 -9 -7 -7 -10 -10 -12 -11 -10 -11 -10 -7 -4 -3 -4 -4
-2 -3 -1 -1 -1 -2 -1 -1 -2 -0 3 6 6 6 6 5 5 4 2 1 6 -3 -3 -10 -10 -9 -7 -9 -10 -10 -10 -9 -11 -10 -8 -6 -4 -10 -11 -9 -10 -11 -8 -5 -3 -4 -7
-2 -3 -3 -4 -2 -3 -3 -3 -2 -1 1 5 6 4 6 5 4 3 0 5 2 -0 -4 -8 -10 -7 -7 -8 -9 -9 -8 -8 -10 -9 -6 -8 -9 -12 -10 -11 -10 -11 -9 -10 -6 -7 -5
-4 -5 -3 -3 -4 -4 -5 -3 -2 -2 1 4 5 3 2 4 3 -0 3 5 1 -3 -8 -9 -6 -7 -5 -7 -7 -8 -8 -10 -10 -10 -11 -9 -7 -12 -13 -11 -10 -9 -12 -6 -6 -2 -2
-5 -3 -5 -4 -3 -4 -4 -6 -1 -1 2 4 4 1 1 1 -0 1 4 2 -1 -7 -10 -8 -7 -7 -7 -7 -8 -7 -10 -11 -10 -9 -11 -12 -7 -9 -11 -10 -9 -10 -7 -8 -7 -2 1
-8 -7 -7 -6 -4 -5 -4 -4 -1 0 3 4 1 1 -0 -0 0 0 3 0 -3 -7 -11 -10 -9 -9 -8 -9 -9 -9 -9 -11 -10 -11 -7 -10 -5 -4 -9 -13 -11 -10 -8 -7 -1 -3 -0
-6 -8 -8 -6 -6 -5 -6 -5 -3 1 3 2 -0 -2 -1 -0 3 2 -1 -1 -4 -7 -10 -10 -9 -9 -10 -9 -8 -9 -8 -8 -9 -8 -9 -8 -6 -4 -6 -6 -4 -1 -4 -8 -4 -0 1
-6 -5 -5 -6 -6 -6 -6 -7 -4 0 3 2 -1 -0 -1 -1 0 1 1 -1 -3 -8 -9 -10 -10 -10 -8 -9 -9 -6 -7 -6 -7 -9 -6 -5 -3 -1 -2 -1 -4 -2 -3 -3 -3 0 -1
-5 -5 -5 -5 -4 -5 -6 -10 -6 -0 2 2 -0 0 -2 0 0 1 -0 -2 -3 -6 -10 -10 -8 -8 -9 -7 -7 -5 -8 -6 -5 -5 -5 -6 -2 -1 -4 -5 -6 -4 -2 -2 2 0 3
-5 -5 -5 -5 -5 -5 -5 -7 -7 0 2 2 1 1 -2 -2 -2 0 1 -1 -2 -6 -7 -7 -8 -9 -8 -6 -7 -7 -7 -5 -3 -7 -5 -5 -2 0 -0 -3 -2 1 0 -1 1 1 -0
-4 -4 -4 -5 -5 -3 -3 -5 -7 0 2 2 2 0 -1 -1 -1 1 1 -1 -3 -5 -8 -9 -9 -7 -6 -7 -10 -10 -9 -7 -5 -3 -4 -2 1 1 2 -2 -1 3 2 0 1 -1 1
-2 -2 -2 -4 -4 -0 -3 -5 -6 0 2 2 2 -0 -0 1 -0 -1 -2 -3 -5 -4 3 -7 -7 -6 -6 -6 -6 -5 -5 -5 -4 -4 -3 2 3 1 2 0 3 1 -1 -1 0 -1 -2
-1 -1 -1 -1 -2 -1 -4 -4 -4 1 2 2 1 -1 0 1 -2 -2 -3 -5 -7 -6 -5 -3 -7 -6 -3 -4 -3 -2 -1 0 -1 -3 -3 1 2 3 3 1 1 -0 -1 -1 0 -1 -2
-2 -1 -0 -1 -0 -2 -2 -2 -1 -0 2 2 0 -0 -0 0 -1 -4 -5 -7 -4 -1 -3 -4 -2 -2 -3 -3 -2 1 1 -1 1 0 -3 -1 1 2 2 1 2 -0 -3 -4 -4 2 -5
4 2 -0 -0 -0 -0 -1 0 0 2 2 1 1 1 -0 0 -4 -6 -5 -2 -3 -5 -5 -3 -2 -2 -3 -2 1 1 -0 -3 1 1 2 3 3 3 1 2 1 -4 -5 -4 2 1 -5
1 1 -0 -0 -1 -1 -0 2 2 1 1 1 1 1 1 0 -1 -1 -3 -5 -7 -7 -4 -4 -3 -3 -3 -1 -0 -1 -0 0 0 -1 -0 1 3 3 0 3 4 -5 -4 -1 -2 -4 -4
1 1 1 1 1 1 1 1 1 0 -0 1 0 -0 -1 -2 -2 -3 -4 -5 -5 -7 -7 -4 -4 -4 -4 -3 -3 -1 -0 -0 -0 0 -3 1 -0 2 -0 -0 -4 -4 -2 -4 -4 -4 -4

GFSGBSN_850_dewp_123.txt.gz
Dewpoint
10 10 10 10 10 10 10 10 10 10 9 9 9 9 9 9 9 9 9 9 9 8 8 7 7 6 4 2 0 -7 -8 -6 -9 -16 -8 -11 -13 -13 -12 -13 -15 -13 -12 -14 -15 -14 -14
9 9 10 9 9 9 10 10 10 10 10 10 10 10 10 9 10 10 9 9 9 9 9 8 7 6 3 0 -2 -7 -7 -6 -7 -6 -6 -11 -13 -15 -14 -13 -10 -12 -12 -12 -13 -14 -14
-7 -4 6 7 -3 3 5 8 9 10 10 9 10 10 10 10 10 9 9 9 10 9 8 8 7 6 3 2 -1 -3 -5 -6 -9 -9 -10 -12 -11 -11 -9 -9 -11 -12 -11 -12 -12 -12 -13
-6 -8 -8 -0 -3 -5 -2 4 2 5 9 10 10 9 8 10 9 9 8 9 9 9 9 8 7 4 2 2 1 -3 -5 -6 -9 -12 -12 -10 -12 -9 -9 -10 -11 -11 -10 -8 -11 -12 -12
-3 0 -2 -6 -5 -6 -6 -5 -5 -3 0 3 9 7 6 9 9 9 9 8 9 8 8 8 6 3 3 -2 -6 -8 -7 -10 -13 -13 -11 -12 -12 -10 -10 -9 -8 -8 -5 -6 -7 -10 -14
3 4 1 -0 -10 -14 -12 -10 -7 -6 -4 -1 3 8 9 9 9 9 9 8 8 7 7 5 4 3 1 -4 -7 -8 -7 -8 -9 -14 -10 -9 -9 -9 -9 -9 -6 -7 -6 -7 -7 -9 -9
1 3 3 3 -1 -5 -8 -10 -9 -6 -6 -5 -1 1 3 6 9 9 8 7 7 3 4 4 3 1 1 1 -1 -5 -7 -8 -7 -13 -7 -8 -6 -5 -8 -9 -9 -9 -6 -7 -9 -9 -9
2 2 1 1 3 -5 -7 0 4 2 -3 -4 0 5 4 7 8 8 8 7 4 3 3 4 4 3 3 2 1 -2 -4 -6 -5 -8 -11 -7 -5 -7 -8 -8 -7 -5 -6 -7 -8 -9 -9
2 2 2 -0 3 3 -5 2 4 4 3 -0 2 6 6 5 7 8 7 6 6 4 0 2 2 2 3 2 1 -1 -3 -5 -6 -5 -5 -5 -6 -7 -7 -7 -6 -8 -8 -8 -8 -10 -12
1 1 1 1 2 3 1 -0 4 4 4 4 3 6 6 4 7 6 6 5 5 3 3 0 -2 -1 0 -1 -2 -4 -3 -4 -7 -6 -6 -6 -7 -6 -7 -8 -9 -8 -9 -9 -8 -8 -6
0 1 1 1 1 2 2 -1 1 3 5 5 5 6 6 5 5 6 5 6 4 1 4 -6 -8 -7 -3 -3 -10 -10 -9 -5 -4 -6 -6 -5 -8 -8 -8 -9 -11 -8 -9 -9 -9 -8 -8
-0 -0 0 0 1 1 1 2 -1 1 3 5 5 5 6 6 6 5 5 5 2 4 5 -4 -9 -8 -8 -7 -9 -12 -8 -10 -12 -10 -8 -8 -12 -12 -10 -11 -10 -10 -10 -8 -8 -7 -4
-1 -1 -1 -0 -0 0 0 1 2 -0 1 2 4 6 5 6 6 5 5 2 5 6 -4 -6 -6 -8 -7 -7 -7 -10 -10 -10 -10 -7 -5 -8 -9 -11 -13 -9 -10 -10 -8 -2 -0 -0 -2
-2 -2 -2 -1 -1 -1 -0 -0 1 2 1 0 1 5 6 6 6 6 2 4 6 1 -2 -4 -6 -6 -5 -7 -8 -8 -9 -7 -10 -9 -6 -5 -3 -8 -9 -9 -8 -7 -7 -1 1 -0 -3
-2 -3 -3 -2 -2 -1 -1 -1 -0 0 2 0 1 4 5 5 5 5 3 5 3 -1 -3 -4 -5 -5 -5 -6 -5 -7 -7 -7 -8 -9 -5 -5 -5 -9 -10 -10 -9 -7 -6 -8 -5 -6 -3
-2 -3 -3 -4 -4 -3 -2 -2 -2 -0 0 0 1 4 4 5 5 3 4 3 3 -2 -3 -3 1 -3 -4 -6 -5 -6 -6 -7 -7 -7 -7 -6 -3 -8 -10 -10 -10 -9 -9 -3 -1 -0 -1
-1 -2 -3 -4 -4 -4 -3 -2 -2 -2 -1 0 1 3 3 4 4 1 4 4 1 -0 -2 -1 -0 -2 -4 -4 -5 -4 -5 -8 -9 -8 -10 -10 -6 -6 -8 -8 -7 -7 -5 -5 -4 -4 -1
-3 -3 -3 -4 -4 -4 -3 -4 -5 -3 -2 0 2 2 2 3 1 0 3 3 -0 -1 -1 -0 1 -5 -2 -4 -5 -4 -3 -5 -11 -9 -8 -7 -4 -3 -4 -8 -9 -9 -7 -5 -1 -3 -3
-6 -6 -6 -6 -7 -7 -8 -5 -3 -3 -3 1 1 0 1 2 2 1 1 2 2 1 0 2 2 -5 -7 -4 -3 -5 -3 -6 -10 -8 -6 -7 -4 -2 -3 -4 -4 -1 0 1 -0 -0 -0
-5 -6 -7 -7 -8 -8 -9 -9 -5 -2 -4 1 1 -0 -0 0 0 1 1 2 3 0 1 2 -1 -6 -6 -4 -5 -6 -3 -5 -8 -6 -8 -7 -3 -2 -2 -3 -3 -3 -4 -2 2 4 0
-6 -7 -6 -5 -7 -7 -6 -9 -8 -3 -3 1 0 -0 -1 -1 0 1 1 1 2 3 -1 -0 1 -5 -5 -4 -5 -5 -3 -3 -5 -4 -7 -5 -2 -4 -3 -4 -5 -3 -4 -5 -2 -1 1
-8 -8 -6 -4 -4 -3 -5 -8 -7 -4 -4 0 0 0 -2 -1 -1 1 2 4 3 2 1 -2 -2 -5 -6 -4 -5 -6 -5 -2 -3 -3 -4 -4 -2 -3 -4 -3 -3 -1 -2 -3 -3 -2 -0
-7 -7 -6 -6 -5 -4 -5 -5 -7 -6 -5 -1 0 -3 -3 -2 -1 1 0 1 3 1 1 -4 -4 -5 -4 -5 -7 -7 -8 -7 -3 -3 -2 -3 -2 -3 -1 -2 0 0 -3 -2 -2 -1 0
-8 -6 -7 -7 -6 -5 -4 -6 -6 -7 -7 -1 0 -2 -0 -0 -1 -0 -1 -0 1 2 1 -1 -6 -4 -5 -8 -7 -7 -7 -8 -5 -4 -4 -2 -2 -1 0 -0 3 -2 -2 -1 0 -0 -2
-5 -6 -6 -6 -6 -6 -4 -3 -4 -7 -6 -3 1 -1 -1 0 -1 -1 -1 -1 -0 0 2 -2 -6 -6 -6 -7 -2 -2 -1 -3 -3 -3 -1 -1 -1 -1 1 2 -0 0 -2 -1 -0 0 -2
-5 -6 -5 -4 -3 -4 -5 -3 -4 -7 -6 -2 -1 1 -0 0 -0 -1 -1 -1 -0 1 1 -1 -5 -6 -6 -3 -1 -0 1 0 -0 -2 -2 -1 -1 -1 2 3 4 2 -2 -3 -3 1 -1
-2 -2 -3 -3 -3 -2 -4 -4 -6 -6 -4 -3 -1 1 2 1 -2 -1 -1 -1 -0 0 -1 -1 -2 -3 -5 -1 0 1 1 -2 2 1 2 2 2 2 1 2 1 -2 -3 -3 1 -1 -3
-1 -1 -2 -2 -2 -2 -4 -4 -6 -6 -5 -4 -2 -0 2 1 1 -0 1 -2 0 -2 -2 -1 -1 -1 -1 1 0 -0 1 0 3 2 1 1 1 1 1 3 3 -3 -4 -1 -2 -2 -3
1 -1 -1 -1 -1 -2 -4 -5 -6 -6 -5 -4 -2 -1 1 2 1 1 1 -1 -1 -3 -2 -2 -2 -2 -2 -1 -1 -1 2 2 2 4 -1 1 -0 0 1 -0 -3 -2 -2 -2 -3 -3 -3